EW7158 Weather Reports


time (UTC)temp
C
wind
direction
speed
KPH
gust
KPH
rain 1hr
cm
rain 24hr
cm
rain mn
cm
humidity
%
barometer
mb
20260503180746 19 135 0.0 1.6 0.00 0.00 0.00 71 1015.6
20260503175843 19 67 0.0 1.6 0.00 0.00 0.00 71 1015.7
20260503174845 18 67 0.0 1.6 0.00 0.00 0.00 71 1015.8
20260503173845 18 180 0.0 0.0 0.00 0.00 0.00 71 1015.9
20260503172843 18 90 0.0 1.6 0.00 0.00 0.00 72 1016.1
20260503170844 17 22 0.0 0.0 0.00 0.00 0.00 72 1016.1
20260503131345 11 180 0.0 0.0 0.00 0.00 0.00 64 1016.1
20260503130401 11 180 0.0 0.0 0.00 0.00 0.00 64 1016.1
20260503110745 12 180 0.0 0.0 0.00 0.03 0.00 61 1016.2
20260503081144 13 225 0.0 0.0 0.00 0.03 0.00 56 1016.4
20260503072346 15 225 0.0 1.6 0.00 0.03 0.00 57 1016.2
20260503071443 15 225 0.0 0.0 0.00 0.03 0.00 56 1016.3
20260503071342 15 225 0.0 0.0 0.00 0.03 0.00 57 1016.3
20260503070345 15 225 0.0 0.0 0.00 0.03 0.00 56 1016.3
20260503054538 16 225 0.0 0.0 0.00 0.03 0.03 56 1016.0
20260503053552 17 225 0.0 0.0 0.00 0.03 0.03 56 1016.0
20260503051537 17 225 0.0 0.0 0.00 0.03 0.03 57 1016.1
20260503050636 17 225 0.0 1.6 0.00 0.03 0.03 56 1016.0
20260503044739 17 225 1.6 1.6 0.00 0.03 0.03 58 1016.0
20260503043738 17 225 0.0 0.0 0.00 0.03 0.03 58 1016.0
20260503042754 17 225 0.0 1.6 0.00 0.03 0.03 57 1015.9
20260503041837 17 225 1.6 1.6 0.00 0.03 0.03 57 1015.8
20260503040854 17 225 1.6 1.6 0.00 0.03 0.03 58 1015.8
20260503035952 17 225 1.6 1.6 0.00 0.03 0.03 58 1015.7
20260503034955 17 225 0.0 1.6 0.00 0.03 0.03 57 1015.6
20260503034039 17 225 1.6 1.6 0.00 0.03 0.03 57 1015.6
20260503033137 17 225 1.6 1.6 0.00 0.03 0.03 59 1015.3
20260503032236 18 225 1.6 1.6 0.00 0.03 0.03 58 1015.2
20260503030238 18 225 0.0 0.0 0.00 0.03 0.03 59 1015.2
20260503025337 18 225 1.6 1.6 0.00 0.03 0.03 60 1015.2
20260503024351 19 225 4.8 6.4 0.00 0.03 0.03 60 1015.2
20260503023338 19 225 4.8 4.8 0.00 0.03 0.03 60 1015.2
20260503022354 19 225 4.8 6.4 0.00 0.03 0.03 59 1015.2
20260503021452 19 225 4.8 4.8 0.00 0.03 0.03 61 1015.1
20260503020437 19 225 4.8 6.4 0.00 0.03 0.03 60 1015.2
20260503015436 19 225 3.2 4.8 0.00 0.03 0.03 61 1015.3
20260503014438 20 225 3.2 4.8 0.00 0.03 0.03 60 1015.4
20260503013438 20 227 3.2 6.4 0.00 0.03 0.03 62 1015.4
20260503012436 20 225 1.6 4.8 0.00 0.03 0.03 61 1015.6
20260503011438 20 225 3.2 4.8 0.00 0.03 0.03 62 1015.6
20260503005539 20 202 0.0 1.6 0.00 0.03 0.03 63 1015.5
20260503004538 20 225 3.2 4.8 0.00 0.03 0.03 63 1015.7
20260503003536 21 225 3.2 6.4 0.00 0.03 0.03 64 1015.7
20260503002537 21 225 0.0 3.2 0.00 0.03 0.03 63 1015.7
20260503001636 21 182 0.0 3.2 0.00 0.03 0.03 64 1015.7
20260503000652 21 202 0.0 1.6 0.00 0.03 0.03 64 1015.6
20260502235637 21 180 0.0 0.0 0.00 0.03 0.03 65 1015.8
20260502234652 21 225 1.6 4.8 0.00 0.03 0.03 66 1015.8
20260502233738 21 202 1.6 3.2 0.00 0.03 0.03 65 1015.9
20260502232837 21 180 0.0 0.0 0.00 0.03 0.03 66 1015.9
20260502231937 21 22 0.0 1.6 0.00 0.03 0.03 66 1016.0
20260502231036 21 26 0.0 3.2 0.00 0.03 0.03 66 1016.0
20260502230045 21 180 0.0 0.0 0.00 0.03 0.03 68 1016.0
20260502224139 21 360 0.0 1.6 0.00 0.03 0.03 68 1016.4
20260502223137 21 202 0.0 1.6 0.00 0.03 0.03 69 1016.5
20260502222137 21 204 1.6 4.8 0.00 0.03 0.03 70 1016.6
20260502221236 21 180 0.0 1.6 0.00 0.03 0.03 69 1016.5
20260502220238 22 202 0.0 0.0 0.00 0.03 0.03 71 1016.7
20260502215238 22 180 0.0 1.6 0.00 0.03 0.03 71 1016.8
20260502214335 22 202 0.0 3.2 0.00 0.03 0.03 72 1016.8
20260502213352 22 180 3.2 4.8 0.00 0.03 0.03 73 1016.9
20260502212437 22 100 0.0 0.0 0.00 0.03 0.03 73 1017.1
20260502211436 22 120 0.0 0.0 0.00 0.03 0.03 75 1017.2
20260502210454 22 217 0.0 1.6 0.00 0.03 0.03 75 1017.2
20260502205538 22 149 0.0 3.2 0.00 0.03 0.03 75 1017.2
20260502204539 21 112 0.0 0.0 0.00 0.03 0.03 76 1017.4
20260502203538 21 27 1.6 3.2 0.00 0.03 0.03 77 1017.3
20260502202539 21 202 1.6 3.2 0.00 0.03 0.03 78 1017.6
20260502200554 20 99 0.0 1.6 0.00 0.03 0.03 79 1017.8
20260502195540 19 90 0.0 0.0 0.00 0.03 0.03 80 1017.8
20260502194637 19 45 1.6 3.2 0.00 0.03 0.03 79 1017.9
20260502192639 18 45 0.0 1.6 0.00 0.03 0.03 81 1018.1
20260502190638 18 90 0.0 0.0 0.00 0.03 0.03 82 1018.2
20260502184637 17 45 0.0 0.0 0.00 0.03 0.03 81 1018.4
20260502183654 17 45 0.0 0.0 0.00 0.03 0.03 82 1018.4
20260502182639 17 159 0.0 1.6 0.00 0.03 0.03 82 1018.6